Location: Riverside Cemetery
(38.3047°N, 99.7773°W)
Time: 06:20:58
(UTC+00:00)

deb Chang Zheng 4 - Pass Details

Date: 19 September 2020
Orbit: 602 x 626 km, 98.6° (Epoch: 21 October)

Event Time Altitude Azimuth Distance (km) Brightness Sun altitude
Rises 11:19:53 0° 9° (N) 2,891 7.3 -13.4°
Reaches altitude 10° 11:22:06 10° 7° (N) 1,978 6.4 -13.0°
Maximum altitude 11:26:21 64° 286° (WNW) 678 3.5 -12.2°
Drops below altitude 10° 11:30:32 10° 205° (SSW) 1,950 5.8 -11.4°
Sets 11:32:42 0° 202° (SSW) 2,846 6.6 -11.0°
